Location: UBC Liquid-Mirror Observatory
(49.2876°N, 122.5728°W)
Time: 17:26:14
(UTC-07:00)

Amateur Radio Satellites - All Passes

Search period start: 06 May 2016 16:56
Search period end: 07 May 2016 16:56
Location: UBC Liquid-Mirror Observatory, 49.2876°N, 122.5728°W

Satellite Date Start Highest point End Downlink Frequencies (MHz)
Time Altitude Azimuth
HORYU 2 06 May 17:02:03 17:06:31 77° 257° (WSW) 17:11:00 437.375
YUBILEINY 06 May 17:04:55 17:09:23 15° 71° (ENE) 17:13:50 435.215
M-CUBED/EXP-1 PRIME 06 May 17:06:16 17:07:11 11° 47° (NE) 17:08:07 437.505
MOZHAYETS 4 06 May 17:07:11 17:11:43 60° 101° (E) 17:16:15
BEESAT 06 May 17:16:14 17:19:22 18° 303° (WNW) 17:22:30 436.000
AUBIESAT-1 06 May 17:20:23 17:21:55 12° 49° (NE) 17:23:24 437.475
CUTE-I 06 May 17:21:39 17:26:04 27° 61° (ENE) 17:30:30 437.470
BRITE-PL 06 May 17:24:28 17:28:41 26° 60° (ENE) 17:33:09 437.365/2234.400
CUBESAT XI-V 06 May 17:28:22 17:30:57 14° 87° (E) 17:33:31 437.345
BEESAT 3 06 May 17:30:18 17:33:21 22° 115° (ESE) 17:36:25 437.485
PCSat 06 May 17:34:48 17:39:21 26° 325° (NW) 17:43:56 145.827
DANDE 06 May 17:37:43 17:39:41 13° 307° (NW) 17:41:54 436.750
HO-68 06 May 17:39:10 17:42:02 13° 38° (NE) 17:44:53 435.675
BEESAT 2 06 May 17:46:18 17:49:10 19° 114° (ESE) 17:52:04 435.950
AO-7 06 May 17:46:30 17:52:29 21° 271° (W) 17:58:31 29.400- 29.500
NOAA 15 06 May 17:48:40 17:53:51 61° 70° (ENE) 17:59:06 137.62
DOVE 4 06 May 17:49:52 17:52:37 14° 54° (NE) 17:55:22 437.250
LilacSat-2 06 May 17:56:38 18:00:10 35° 69° (ENE) 18:03:43 437.200
Cubesat XI-IV 06 May 18:06:27 18:11:40 59° 69° (ENE) 18:16:54 437.490
KKS-1 06 May 18:09:51 18:13:37 27° 297° (WNW) 18:17:21 437.445
NOAA 18 06 May 18:10:09 18:15:40 82° 72° (ENE) 18:21:11 137.9125
GOMX 1 06 May 18:13:13 18:17:58 36° 65° (ENE) 18:22:54 467.674
STARS 06 May 18:14:16 18:18:25 40° 292° (WNW) 18:22:31 437.465
AO-85 06 May 18:16:13 18:19:45 18° 19° (NNE) 18:23:06 145.980
M-CUBED/EXP-1 PRIME 06 May 18:36:19 18:40:54 55° 65° (ENE) 18:45:19 437.505
Cosmos 2491 06 May 18:41:38 18:50:17 63° 268° (W) 18:58:52 435.465 / 435.565
MOZHAYETS 4 06 May 18:45:13 18:48:30 20° 300° (WNW) 18:51:47
AUBIESAT-1 06 May 18:51:05 18:55:39 63° 66° (ENE) 19:00:03 437.475
CUTE 1.7 + AOD 2 06 May 18:53:07 18:54:55 13° 57° (ENE) 18:56:45 437.475
YUBILEINY 06 May 18:55:49 19:04:25 67° 93° (E) 19:13:01 435.215
STRAND 1 06 May 18:56:25 18:56:58 10° 84° (E) 18:57:31 437.568
CUTE-I 06 May 19:00:40 19:05:51 53° 260° (W) 19:11:04 437.470
BRITE-PL 06 May 19:01:49 19:06:47 56° 261° (W) 19:12:10 437.365/2234.400
CUBESAT XI-V 06 May 19:04:11 19:08:55 79° 287° (WNW) 19:13:38 437.345
BEESAT 3 06 May 19:06:56 19:10:47 50° 315° (NW) 19:14:40 437.485
SEEDS 06 May 19:11:48 19:14:02 14° 59° (ENE) 19:16:15 437.485
HO-68 06 May 19:21:20 19:28:02 45° 61° (ENE) 19:34:45 435.675
PCSat 06 May 19:22:22 19:24:43 13° 350° (N) 19:27:04 145.827
BEESAT 2 06 May 19:22:45 19:26:41 57° 313° (NW) 19:30:39 435.950
DOVE 4 06 May 19:24:11 19:29:24 73° 73° (ENE) 19:34:44 437.250
NOAA 15 06 May 19:29:59 19:34:03 22° 269° (W) 19:38:10 137.62
LilacSat-2 06 May 19:31:30 19:34:35 22° 267° (W) 19:37:41 437.200
AAUSAT CUBESAT 2 06 May 19:33:24 19:35:33 14° 59° (ENE) 19:37:43 437.432
CINEMA 3 06 May 19:35:47 19:40:20 36° 67° (ENE) 19:44:51 145.822/145.860
Cosmos 2504 06 May 19:39:07 19:45:17 32° 84° (E) 19:51:30 435.465 / 435.565
UWE-3 06 May 19:39:33 19:40:52 11° 55° (NE) 19:42:10 435.000/436.395/437.385
Cubesat XI-IV 06 May 19:47:56 19:52:08 23° 268° (W) 19:56:20 437.490
GOMX 1 06 May 19:51:04 19:55:58 40° 265° (W) 20:01:06 467.674
NOAA 18 06 May 19:53:29 19:57:00 17° 271° (W) 20:00:31 137.9125
AIST 2 06 May 19:53:36 19:57:10 29° 118° (ESE) 20:00:47 435.215
CUBEBUG 2 06 May 19:54:08 19:57:31 20° 62° (ENE) 20:00:52 437.445
CANX-2 06 May 19:54:09 19:58:13 50° 71° (ENE) 20:02:18 2200.000
AO-85 06 May 19:56:33 20:01:26 51° 43° (NE) 20:05:51 145.980
ZACube-1 06 May 19:59:42 20:01:17 12° 56° (NE) 20:02:51 437.345
M-CUBED/EXP-1 PRIME 06 May 20:12:03 20:15:40 22° 262° (W) 20:19:14 437.505
CUTE 1.7 + AOD 2 06 May 20:25:55 20:30:08 89° 248° (WSW) 20:34:22 437.475
AUBIESAT-1 06 May 20:27:13 20:30:26 19° 263° (W) 20:33:36 437.475
Oscar 11 06 May 20:30:41 20:34:06 23° 63° (ENE) 20:37:31 145.826/435.025
STRAND 1 06 May 20:31:58 20:37:06 70° 103° (ESE) 20:42:12 437.568
COMPASS 1 06 May 20:40:03 20:44:10 72° 73° (ENE) 20:48:18 437.405
RS-15 06 May 20:40:20 20:50:10 36° 106° (ESE) 21:00:26 29.354- 29.394
Cosmos 2491 06 May 20:41:09 20:45:13 14° 291° (WNW) 20:49:17 435.465 / 435.565
CUBESAT XI-V 06 May 20:43:26 20:45:32 13° 305° (NW) 20:47:39 437.345
SEEDS 06 May 20:45:02 20:49:12 76° 257° (WSW) 20:53:24 437.485
BEESAT 3 06 May 20:47:16 20:49:23 14° 336° (NNW) 20:51:30 437.485
FUNcube-1 06 May 20:48:23 20:52:12 29° 66° (ENE) 20:55:59 145.935
YUBILEINY 06 May 20:54:10 21:01:53 34° 296° (WNW) 21:09:40 435.215
BEESAT 2 06 May 21:03:01 21:05:22 15° 335° (NNW) 21:07:44 435.950
DOVE 4 06 May 21:03:58 21:07:38 19° 272° (W) 21:11:21 437.250
AAUSAT CUBESAT 2 06 May 21:06:24 21:10:30 75° 258° (WSW) 21:14:39 437.432
PCSat 06 May 21:07:40 21:10:34 14° 17° (NNE) 21:13:28 145.827
HO-68 06 May 21:08:59 21:15:47 45° 261° (W) 21:22:37 435.675
UWE-3 06 May 21:11:59 21:16:33 71° 74° (ENE) 21:21:02 435.000/436.395/437.385
CINEMA 3 06 May 21:12:52 21:17:28 35° 265° (W) 21:22:01 145.822/145.860
CUBEBUG 2 06 May 21:29:08 21:33:47 60° 259° (W) 21:38:21 437.445
Cosmos 2504 06 May 21:31:18 21:38:19 55° 286° (WNW) 21:45:24 435.465 / 435.565
CANX-2 06 May 21:31:23 21:34:22 19° 269° (W) 21:37:23 2200.000
AIST 2 06 May 21:31:36 21:35:33 42° 317° (NW) 21:39:31 435.215
ZACube-1 06 May 21:32:23 21:36:52 78° 76° (ENE) 21:41:16 437.345
AO-85 06 May 21:37:33 21:41:39 28° 245° (WSW) 21:45:26 145.980
PRISM 06 May 21:40:18 21:44:30 76° 104° (ESE) 21:48:40 437.425
DELFI C3 06 May 21:42:45 21:46:37 56° 72° (ENE) 21:50:31 145.870
HUMSAT D 06 May 21:56:32 22:00:25 38° 69° (ENE) 22:04:17 437.325/437.525
Oscar 11 06 May 22:05:54 22:10:01 43° 262° (W) 22:14:09 145.826/435.025
CUTE 1.7 + AOD 2 06 May 22:06:14 22:06:39 10° 274° (W) 22:07:04 437.475
VELOX 1 06 May 22:08:48 22:10:17 12° 54° (NE) 22:11:47 145.980
STRAND 1 06 May 22:12:04 22:15:48 21° 302° (WNW) 22:19:31 437.568
COMPASS 1 06 May 22:18:21 22:20:14 13° 272° (W) 22:22:09 437.405
FUNcube-1 06 May 22:24:16 22:28:22 35° 263° (W) 22:32:26 145.935
ANTELSAT 06 May 22:36:52 22:39:43 17° 90° (E) 22:42:33 437.575/2403.000
AISAT 06 May 22:39:17 22:42:41 22° 61° (ENE) 22:46:06 437.250
O/OREOS (USA 219) 06 May 22:47:23 22:51:03 23° 48° (NE) 22:54:42 437.305
GONETS M04 06 May 22:49:26 22:54:32 17° 72° (ENE) 22:59:38
RS-15 06 May 22:50:02 23:01:31 81° 311° (NW) 23:13:43 29.354- 29.394
PCSat 06 May 22:50:38 22:55:38 35° 41° (NE) 23:00:36 145.827
UWE-3 06 May 22:50:48 22:53:29 15° 271° (W) 22:56:09 435.000/436.395/437.385
CUBEBUG 1 06 May 23:02:25 23:06:18 31° 65° (ENE) 23:10:13 437.445
ZACube-1 06 May 23:11:31 23:13:41 13° 272° (W) 23:15:51 437.345
AIST 2 06 May 23:13:02 23:15:06 13° 339° (NNW) 23:17:10 435.215
ESTCUBE 1 06 May 23:15:35 23:19:57 56° 71° (ENE) 23:24:23 437.505/2401.250
PRISM 06 May 23:16:59 23:19:17 15° 302° (WNW) 23:21:35 437.425
CUSAT 1 06 May 23:18:37 23:20:55 11° 47° (NE) 23:23:16 437.405
DELFI C3 06 May 23:19:36 23:21:52 15° 270° (W) 23:24:10 145.870
UKube-1 06 May 23:20:36 23:24:33 35° 66° (ENE) 23:28:31 .
QB50P1 06 May 23:21:52 23:22:05 10° 86° (E) 23:22:19 145.935-145.965
DX 1 06 May 23:22:34 23:26:43 44° 68° (ENE) 23:30:54 434.975-435.025
UNISAT 6 06 May 23:30:25 23:34:42 56° 101° (E) 23:38:53 437.425
Cosmos 2504 06 May 23:30:59 23:33:44 12° 312° (NW) 23:36:30 435.465 / 435.565
50 SAT 06 May 23:31:24 23:34:59 63° 74° (ENE) 23:38:37 437.505
HUMSAT D 06 May 23:32:48 23:36:11 23° 267° (W) 23:39:33 437.325/437.525
Cosmos 2499 06 May 23:35:07 23:38:19 14° 73° (ENE) 23:41:32 435.465 / 435.565
VELOX 1 06 May 23:41:33 23:45:58 74° 74° (ENE) 23:50:27 145.980
SPROUT 06 May 23:41:56 23:45:43 31° 66° (ENE) 23:49:33 437.525
TIGRISAT 06 May 23:46:18 23:50:38 77° 103° (ESE) 23:54:53 435.000
NANOSAT C BR1 06 May 23:51:31 23:54:40 20° 92° (E) 23:57:47 145.865
TISAT 1 06 May 23:59:46 00:02:32 17° 60° (ENE) 00:05:20 437.305
AIST 1 07 May 00:03:23 00:07:25 39° 92° (E) 00:11:31
BEESAT 3 07 May 00:06:01 00:08:14 14° 24° (NNE) 00:10:27 437.485
ANTELSAT 07 May 00:12:35 00:16:50 56° 289° (WNW) 00:21:01 437.575/2403.000
AISAT 07 May 00:14:30 00:18:51 52° 260° (W) 00:23:15 437.250
JAS-2 07 May 00:17:01 00:20:25 13° 79° (ENE) 00:23:47 435.910
BEESAT 2 07 May 00:22:25 00:24:32 14° 23° (NNE) 00:26:40 435.950
O/OREOS (USA 219) 07 May 00:26:21 00:30:47 54° 249° (WSW) 00:35:10 437.305
PCSat 07 May 00:33:59 00:39:16 52° 242° (WSW) 00:44:30 145.827
ITUPSAT 1 07 May 00:35:13 00:36:09 11° 51° (NE) 00:37:04 437.325
CUBEBUG 1 07 May 00:38:34 00:42:33 33° 264° (W) 00:46:35 437.445
SWISSCUBE 07 May 00:40:41 00:42:50 13° 54° (NE) 00:44:59 437.505
GONETS M04 07 May 00:40:57 00:49:43 72° 94° (E) 00:58:30
DUCHIFAT 1 07 May 00:40:58 00:45:10 58° 101° (E) 00:49:17 145.980
DANDE 07 May 00:41:32 00:46:18 20° 59° (ENE) 00:51:40 436.750
QB50P2 07 May 00:47:59 00:52:16 79° 105° (ESE) 00:56:29 145.880/145.840
POLYITAN 1 07 May 00:50:13 00:54:29 81° 104° (ESE) 00:58:42 437.675
POPSAT HIP 1 07 May 00:51:31 00:55:47 81° 103° (ESE) 01:00:00 437.405
ESTCUBE 1 07 May 00:53:57 00:57:07 19° 269° (W) 01:00:20 437.505/2401.250
QB50P1 07 May 00:54:17 00:58:33 87° 99° (E) 01:02:47 145.935-145.965
UKube-1 07 May 00:56:56 01:00:40 28° 265° (W) 01:04:25 .
CUSAT 1 07 May 00:58:02 01:04:57 42° 68° (ENE) 01:12:30 437.405
DX 1 07 May 00:59:38 01:03:06 23° 267° (W) 01:06:36 434.975-435.025
BUGSAT 1 07 May 01:03:08 01:07:15 50° 100° (E) 01:11:16 437.445
RS-15 07 May 01:05:00 01:15:59 43° 342° (NNW) 01:27:29 29.354- 29.394
50 SAT 07 May 01:07:54 01:09:12 12° 271° (W) 01:10:30 437.505
UNISAT 6 07 May 01:08:01 01:11:03 19° 300° (WNW) 01:14:01 437.425
BEESAT 07 May 01:11:36 01:15:08 21° 59° (ENE) 01:18:41 436.000
SPROUT 07 May 01:17:47 01:21:39 32° 264° (W) 01:25:34 437.525
VELOX 1 07 May 01:20:35 01:22:59 14° 272° (W) 01:25:24 145.980
Cosmos 2499 07 May 01:22:57 01:29:57 71° 95° (E) 01:37:09 435.465 / 435.565
TIGRISAT 07 May 01:24:24 01:26:46 15° 302° (WNW) 01:29:06 435.000
NANOSAT C BR1 07 May 01:26:35 01:30:39 47° 290° (WNW) 01:34:41 145.865
TISAT 1 07 May 01:33:32 01:37:46 64° 258° (WSW) 01:42:01 437.305
AIST 1 07 May 01:41:37 01:45:10 24° 291° (WNW) 01:48:47
BEESAT 3 07 May 01:42:54 01:46:49 54° 47° (NE) 01:50:42 437.485
JAS-2 07 May 01:59:17 02:07:01 58° 99° (E) 02:14:40 435.910
BEESAT 2 07 May 01:59:25 02:03:19 49° 45° (NE) 02:07:12 435.950
Oscar 19 07 May 02:00:39 02:05:16 31° 95° (E) 02:09:50 437.125/150
ITUPSAT 1 07 May 02:08:22 02:13:03 60° 71° (ENE) 02:17:45 437.325
SWISSCUBE 07 May 02:15:07 02:19:51 77° 73° (ENE) 02:24:38 437.505
DUCHIFAT 1 07 May 02:17:36 02:20:28 18° 300° (WNW) 02:23:18 145.980
DANDE 07 May 02:23:13 02:29:59 76° 77° (ENE) 02:38:10 436.750
QB50P2 07 May 02:25:15 02:27:30 14° 302° (WNW) 02:29:44 145.880/145.840
POLYITAN 1 07 May 02:27:32 02:29:43 14° 302° (WNW) 02:31:54 437.675
POPSAT HIP 1 07 May 02:28:48 02:31:00 14° 302° (WNW) 02:33:10 437.405
QB50P1 07 May 02:31:44 02:33:43 13° 303° (WNW) 02:35:40 145.935-145.965
AIST 2 07 May 02:32:41 02:35:34 18° 28° (NNE) 02:38:26 435.215
Gurwin Techsat 1B 07 May 02:33:24 02:37:53 27° 93° (E) 02:42:20 435.225
MOZHAYETS 4 07 May 02:38:36 02:40:58 14° 56° (ENE) 02:43:18
BUGSAT 1 07 May 02:39:14 02:42:18 20° 299° (WNW) 02:45:20 437.445
GONETS M04 07 May 02:39:39 02:47:22 32° 298° (WNW) 02:55:06
CUSAT 1 07 May 02:40:06 02:47:17 54° 266° (W) 02:55:04 437.405
BEESAT 07 May 02:47:51 02:52:33 60° 259° (WSW) 02:57:16 436.000
YUBILEINY 07 May 03:06:42 03:08:56 11° 40° (NE) 03:11:10 435.215
Cosmos 2499 07 May 03:18:06 03:23:51 26° 299° (WNW) 03:29:46 435.465 / 435.565
RS-15 07 May 03:20:56 03:32:11 42° 16° (NNE) 03:43:42 29.354- 29.394
BEESAT 3 07 May 03:21:15 03:24:12 20° 245° (WSW) 03:27:08 437.485
ITAMSAT 1 07 May 03:29:38 03:34:22 34° 96° (E) 03:39:04 435.822/435.867
KKS-1 07 May 03:34:41 03:39:07 61° 71° (ENE) 03:43:35 437.445
BEESAT 2 07 May 03:37:46 03:40:56 23° 244° (WSW) 03:44:04 435.950
STARS 07 May 03:38:33 03:42:39 38° 67° (ENE) 03:46:46 437.465
Oscar 19 07 May 03:39:49 03:44:44 43° 294° (WNW) 03:49:36 437.125/150
JAS-2 07 May 03:44:39 03:51:45 41° 299° (WNW) 03:58:53 435.910
AO-7 07 May 03:47:43 03:54:17 25° 91° (E) 04:00:49 29.400- 29.500
ITUPSAT 1 07 May 03:47:54 03:51:18 19° 269° (W) 03:54:42 437.325
SWISSCUBE 07 May 03:55:32 03:58:14 15° 272° (W) 04:00:58 437.505
DANDE 07 May 04:06:50 04:12:29 27° 273° (W) 04:18:54 436.750
AIST 2 07 May 04:10:35 04:14:46 74° 50° (NE) 04:18:53 435.215
MOZHAYETS 4 07 May 04:12:54 04:17:28 90° 261° (W) 04:22:04
Gurwin Techsat 1B 07 May 04:12:58 04:18:07 51° 292° (WNW) 04:23:14 435.225
CUSAT 1 07 May 04:25:13 04:28:04 12° 284° (WNW) 04:31:00 437.405
CUBESAT XI-V 07 May 04:35:22 04:38:59 23° 62° (ENE) 04:42:38 437.345
HORYU 2 07 May 04:50:04 04:52:36 15° 89° (E) 04:55:07 437.375
YUBILEINY 07 May 05:00:41 05:08:51 42° 67° (ENE) 05:17:00 435.215
ITAMSAT 1 07 May 05:09:05 05:13:53 39° 295° (WNW) 05:18:40 435.822/435.867
KKS-1 07 May 05:13:07 05:16:06 17° 270° (W) 05:19:06 437.445
STARS 07 May 05:15:19 05:19:06 27° 265° (W) 05:22:55 437.465
Cosmos 2504 07 May 05:24:57 05:29:46 17° 54° (NE) 05:34:46 435.465 / 435.565
JAS-2 07 May 05:32:01 05:34:48 12° 321° (NW) 05:37:36 435.910
ISS 07 May 05:34:04 05:34:54 11° 135° (SE) 05:35:45 145.825
RS-15 07 May 05:34:37 05:46:55 76° 46° (NE) 05:59:18 29.354- 29.394
AO-7 07 May 05:39:40 05:48:03 86° 290° (WNW) 05:56:25 29.400- 29.500
AIST 2 07 May 05:50:15 05:52:44 15° 248° (WSW) 05:55:12 435.215
Cosmos 2491 07 May 05:52:05 05:59:44 35° 83° (E) 06:07:25 435.465 / 435.565
MOZHAYETS 4 07 May 05:53:41 05:55:19 12° 274° (W) 05:57:00
Gurwin Techsat 1B 07 May 05:56:15 05:56:54 10° 312° (NW) 05:57:33 435.225
NOAA 15 07 May 06:00:40 06:03:59 16° 88° (E) 06:07:16 137.62
CUBESAT XI-V 07 May 06:11:36 06:16:05 51° 261° (W) 06:20:38 437.345
STRAND 1 07 May 06:14:17 06:18:23 25° 60° (ENE) 06:22:29 437.568
Cubesat XI-IV 07 May 06:20:27 06:23:49 17° 88° (E) 06:27:10 437.490
HORYU 2 07 May 06:25:15 06:29:39 70° 288° (WNW) 06:34:02 437.375
NOAA 18 07 May 06:28:29 06:32:53 24° 93° (E) 06:37:15 137.9125
SO-50 07 May 06:32:05 06:36:44 44° 121° (ESE) 06:41:24 436.795
YUBILEINY 07 May 06:57:34 07:05:56 54° 270° (W) 07:14:18 435.215
LilacSat-2 07 May 07:00:05 07:03:27 29° 95° (E) 07:06:46 437.200
PRISM 07 May 07:01:06 07:02:55 13° 56° (ENE) 07:04:45 437.425
BRITE-PL 07 May 07:02:08 07:07:34 42° 96° (E) 07:12:50 437.365/2234.400
ISS 07 May 07:07:34 07:10:45 52° 152° (SSE) 07:13:57 145.825
CUTE-I 07 May 07:13:13 07:18:20 45° 99° (E) 07:23:25 437.470
Cosmos 2504 07 May 07:17:01 07:24:39 70° 77° (ENE) 07:32:50 435.465 / 435.565
DOVE 4 07 May 07:20:36 07:23:41 16° 86° (E) 07:26:40 437.250
AO-7 07 May 07:33:17 07:39:50 27° 314° (NW) 07:46:24 29.400- 29.500
NOAA 15 07 May 07:39:04 07:44:25 82° 287° (WNW) 07:49:45 137.62
Cosmos 2491 07 May 07:47:19 07:56:04 64° 285° (WNW) 08:04:54 435.465 / 435.565
RS-15 07 May 07:47:40 07:58:41 42° 251° (WSW) 08:09:45 29.354- 29.394
M-CUBED/EXP-1 PRIME 07 May 07:47:44 07:50:19 17° 96° (E) 07:52:45 437.505
GOMX 1 07 May 07:48:24 07:53:45 53° 98° (E) 07:58:47 467.674
STRAND 1 07 May 07:52:16 07:57:14 55° 259° (W) 08:02:17 437.568
Cubesat XI-IV 07 May 07:59:11 08:04:33 81° 287° (WNW) 08:09:53 437.490
AUBIESAT-1 07 May 08:01:43 08:04:32 20° 97° (E) 08:07:12 437.475
HORYU 2 07 May 08:04:21 08:05:24 11° 307° (NW) 08:06:28 437.375
CUTE 1.7 + AOD 2 07 May 08:08:28 08:10:10 12° 87° (E) 08:11:54 437.475
NOAA 18 07 May 08:08:33 08:13:55 58° 292° (WNW) 08:19:15 137.9125
SO-50 07 May 08:12:42 08:17:19 39° 321° (NW) 08:21:56 436.795
SEEDS 07 May 08:26:07 08:28:18 14° 88° (E) 08:30:29 437.485
HO-68 07 May 08:31:46 08:37:57 30° 93° (E) 08:44:06 435.675
PRISM 07 May 08:33:31 08:37:37 86° 255° (WSW) 08:41:47 437.425
LilacSat-2 07 May 08:34:29 08:37:42 26° 294° (WNW) 08:40:52 437.200
BRITE-PL 07 May 08:40:45 08:45:56 37° 295° (WNW) 08:51:01 437.365/2234.400
ISS 07 May 08:43:59 08:47:14 59° 352° (N) 08:50:28 145.825
AAUSAT CUBESAT 2 07 May 08:46:01 08:48:01 13° 88° (E) 08:50:00 437.432
GONETS M04 07 May 08:51:31 08:54:40 12° 41° (NE) 08:57:48
CUTE-I 07 May 08:53:35 08:58:14 32° 298° (WNW) 09:02:53 437.470
DOVE 4 07 May 08:56:56 09:02:03 77° 287° (WNW) 09:06:52 437.250
YUBILEINY 07 May 08:58:13 09:00:35 11° 293° (WNW) 09:02:57 435.215
UNISAT 6 07 May 08:59:18 09:01:22 13° 56° (NE) 09:03:24 437.425
CINEMA 3 07 May 09:03:18 09:07:43 44° 98° (E) 09:11:54 145.822/145.860
CANX-2 07 May 09:10:32 09:14:43 56° 101° (E) 09:18:53 2200.000
Cosmos 2504 07 May 09:11:13 09:17:28 28° 278° (W) 09:24:03 435.465 / 435.565
TIGRISAT 07 May 09:14:06 09:16:56 17° 59° (ENE) 09:19:45 435.000
CUBEBUG 2 07 May 09:16:39 09:19:54 21° 91° (E) 09:23:05 437.445
ZACube-1 07 May 09:19:20 09:20:07 10° 86° (E) 09:20:53 437.345
NOAA 15 07 May 09:20:17 09:23:26 16° 307° (NW) 09:26:34 137.62
M-CUBED/EXP-1 PRIME 07 May 09:21:28 09:25:13 45° 296° (WNW) 09:28:40 437.505
GOMX 1 07 May 09:26:58 09:31:30 28° 298° (WNW) 09:35:52 467.674
AUBIESAT-1 07 May 09:35:40 09:39:16 38° 298° (WNW) 09:42:37 437.475
ANTELSAT 07 May 09:39:11 09:43:02 27° 65° (ENE) 09:46:50 437.575/2403.000
Cubesat XI-IV 07 May 09:40:46 09:43:50 16° 307° (NW) 09:46:54 437.490
CUTE 1.7 + AOD 2 07 May 09:42:20 09:46:35 79° 286° (WNW) 09:50:49 437.475
Oscar 11 07 May 09:49:00 09:52:36 25° 93° (E) 09:56:09 145.826/435.025
Cosmos 2491 07 May 09:49:31 09:55:04 18° 311° (NW) 10:00:39 435.465 / 435.565
NOAA 18 07 May 09:51:27 09:53:30 12° 312° (NW) 09:55:35 137.9125
COMPASS 1 07 May 09:54:06 09:58:17 77° 103° (ESE) 10:02:28 437.405
PHONESAT 2.4 07 May 09:54:49 09:56:46 15° 172° (S) 09:58:43 2401.200-2431.200
SO-50 07 May 09:56:06 09:59:07 16° 344° (NNW) 10:02:06 436.795
SEEDS 07 May 10:00:18 10:04:29 69° 286° (WNW) 10:08:39 437.485
DUCHIFAT 1 07 May 10:04:50 10:05:49 11° 55° (NE) 10:06:49 145.980
AIST 1 07 May 10:06:32 10:09:28 17° 65° (ENE) 10:12:24
FUNcube-1 07 May 10:07:59 10:11:43 31° 95° (E) 10:15:23 145.935
QB50P2 07 May 10:11:06 10:13:22 14° 58° (ENE) 10:15:36 145.880/145.840
POLYITAN 1 07 May 10:13:17 10:15:35 14° 58° (ENE) 10:17:52 437.675
POPSAT HIP 1 07 May 10:14:28 10:16:45 14° 58° (ENE) 10:19:02 437.405
QB50P1 07 May 10:16:57 10:19:26 15° 58° (ENE) 10:21:54 145.935-145.965
HO-68 07 May 10:19:06 10:26:10 65° 293° (WNW) 10:33:13 435.675
AAUSAT CUBESAT 2 07 May 10:19:51 10:24:00 71° 286° (WNW) 10:28:09 437.432
ISS 07 May 10:20:39 10:23:55 65° 11° (N) 10:27:11 145.825
UNISAT 6 07 May 10:32:48 10:37:25 83° 73° (ENE) 10:41:56 437.425
UWE-3 07 May 10:33:58 10:38:15 87° 105° (ESE) 10:42:24 435.000/436.395/437.385
DOVE 4 07 May 10:36:19 10:38:51 14° 307° (NW) 10:41:20 437.250
JAS-2 07 May 10:36:57 10:38:50 11° 37° (NE) 10:40:44 435.910
CINEMA 3 07 May 10:40:54 10:44:37 25° 298° (WNW) 10:48:12 145.822/145.860
GONETS M04 07 May 10:46:07 10:54:28 45° 69° (ENE) 11:02:42
CANX-2 07 May 10:47:17 10:50:12 18° 299° (WNW) 10:53:07 2200.000
NANOSAT C BR1 07 May 10:47:28 10:51:02 26° 65° (ENE) 10:54:37 145.865
TIGRISAT 07 May 10:48:32 10:53:08 74° 257° (WSW) 10:57:39 435.000
DELFI C3 07 May 10:51:00 10:54:56 53° 100° (E) 10:58:51 145.870
CUBEBUG 2 07 May 10:52:40 10:56:47 44° 290° (WNW) 11:00:47 437.445
ZACube-1 07 May 10:52:52 10:57:05 87° 281° (W) 11:01:13 437.345
Cosmos 2499 07 May 11:07:41 11:14:41 35° 67° (ENE) 11:22:08 435.465 / 435.565
HUMSAT D 07 May 11:11:05 11:14:57 39° 98° (E) 11:18:47 437.325/437.525
ANTELSAT 07 May 11:15:18 11:19:38 40° 262° (W) 11:23:53 437.575/2403.000
CUTE 1.7 + AOD 2 07 May 11:20:31 11:21:43 11° 304° (NW) 11:22:54 437.475
Oscar 11 07 May 11:24:50 11:28:51 38° 292° (WNW) 11:32:51 145.826/435.025
VELOX 1 07 May 11:30:18 11:31:06 10° 86° (E) 11:31:55 145.980
PHONESAT 2.4 07 May 11:30:59 11:32:55 15° 189° (S) 11:34:51 2401.200-2431.200
COMPASS 1 07 May 11:31:08 11:33:18 14° 301° (WNW) 11:35:29 437.405
DUCHIFAT 1 07 May 11:36:31 11:40:46 74° 74° (ENE) 11:45:02 145.980
SO-50 07 May 11:39:02 11:41:33 14° 9° (N) 11:44:03 436.795
AIST 1 07 May 11:43:09 11:47:31 60° 264° (W) 11:51:50
QB50P2 07 May 11:44:17 11:48:35 82° 254° (WSW) 11:52:54 145.880/145.840
FUNcube-1 07 May 11:44:18 11:47:57 29° 294° (WNW) 11:51:32 145.935
Oscar 19 07 May 11:45:51 11:48:08 13° 51° (NE) 11:50:25 437.125/150
POLYITAN 1 07 May 11:46:31 11:50:49 80° 255° (WSW) 11:55:08 437.675
POPSAT HIP 1 07 May 11:47:40 11:51:58 80° 258° (WSW) 11:56:17 437.405
QB50P1 07 May 11:50:24 11:54:41 75° 258° (WSW) 11:58:59 145.935-145.965
AO-85 07 May 11:54:01 11:59:06 41° 119° (ESE) 12:04:07 145.980
BUGSAT 1 07 May 11:56:25 12:00:37 61° 72° (ENE) 12:04:50 437.445
ISS 07 May 11:57:13 12:00:18 39° 211° (SSW) 12:03:23 145.825
AISAT 07 May 12:00:56 12:04:27 22° 92° (E) 12:07:57 437.250
HO-68 07 May 12:08:12 12:12:37 18° 315° (NW) 12:17:03 435.675
UWE-3 07 May 12:12:11 12:14:04 13° 303° (WNW) 12:15:55 435.000/436.395/437.385
UNISAT 6 07 May 12:12:36 12:14:42 13° 272° (W) 12:16:48 437.425
JAS-2 07 May 12:15:52 12:21:49 40° 61° (ENE) 12:28:27 435.910
CUBEBUG 1 07 May 12:22:34 12:26:38 34° 96° (E) 12:30:39 437.445
Gurwin Techsat 1B 07 May 12:22:36 12:24:42 12° 50° (NE) 12:26:48 435.225
NANOSAT C BR1 07 May 12:22:41 12:26:38 37° 263° (W) 12:30:38 145.865
DELFI C3 07 May 12:26:46 12:29:27 18° 298° (WNW) 12:32:09 145.870
50 SAT 07 May 12:30:41 12:34:13 44° 100° (E) 12:37:45 437.505
ZACube-1 07 May 12:31:10 12:32:42 12° 304° (NW) 12:34:14 437.345
UKube-1 07 May 12:39:11 12:43:12 35° 97° (E) 12:47:11 .
ESTCUBE 1 07 May 12:40:21 12:44:54 69° 102° (ESE) 12:49:26 437.505/2401.250
DX 1 07 May 12:42:26 12:46:41 45° 99° (E) 12:50:53 434.975-435.025
GONETS M04 07 May 12:43:07 12:51:26 50° 272° (W) 12:59:39
HUMSAT D 07 May 12:47:10 12:50:24 23° 296° (WNW) 12:53:37 437.325/437.525
SPROUT 07 May 12:59:14 13:03:07 32° 96° (E) 13:06:58 437.525
Cosmos 2499 07 May 13:00:35 13:08:14 61° 267° (W) 13:16:26 435.465 / 435.565
AO-7 07 May 13:03:09 13:07:54 17° 35° (NE) 13:12:39 29.400- 29.500
VELOX 1 07 May 13:03:47 13:08:19 83° 106° (ESE) 13:12:46 145.980
O/OREOS (USA 219) 07 May 13:08:07 13:08:17 10° 96° (E) 13:08:27 437.305
TISAT 1 07 May 13:14:31 13:17:00 15° 90° (E) 13:19:27 437.305
DUCHIFAT 1 07 May 13:14:54 13:16:58 13° 272° (W) 13:19:04 145.980
ITAMSAT 1 07 May 13:15:19 13:18:08 15° 53° (NE) 13:20:56 435.822/435.867
SO-50 07 May 13:19:27 13:23:37 28° 33° (NNE) 13:27:40 436.795
Oscar 19 07 May 13:21:23 13:26:32 67° 71° (ENE) 13:31:43 437.125/150
BUGSAT 1 07 May 13:33:44 13:36:23 16° 270° (W) 13:39:04 437.445
AO-85 07 May 13:34:23 13:39:39 47° 318° (NW) 13:44:45 145.980
AISAT 07 May 13:36:52 13:41:10 47° 291° (WNW) 13:45:26 437.250
PCSat 07 May 13:42:02 13:42:15 10° 101° (E) 13:42:28 145.827
Gurwin Techsat 1B 07 May 13:58:25 14:03:39 62° 70° (ENE) 14:08:54 435.225
CUBEBUG 1 07 May 13:58:57 14:02:52 31° 295° (WNW) 14:06:44 437.445
JAS-2 07 May 14:00:35 14:06:43 49° 264° (W) 14:13:40 435.910
50 SAT 07 May 14:05:14 14:07:43 17° 297° (WNW) 14:10:12 437.505
ITUPSAT 1 07 May 14:06:57 14:08:22 11° 86° (E) 14:09:46 437.325
CUSAT 1 07 May 14:08:22 14:11:30 20° 81° (E) 14:15:14 437.405
SWISSCUBE 07 May 14:12:27 14:15:03 14° 88° (E) 14:17:39 437.505
UKube-1 07 May 14:15:25 14:19:10 29° 295° (WNW) 14:22:53 .
ESTCUBE 1 07 May 14:18:13 14:21:14 18° 301° (WNW) 14:24:15 437.505/2401.250
DX 1 07 May 14:19:08 14:22:38 24° 298° (WNW) 14:26:07 434.975-435.025
SPROUT 07 May 14:35:16 14:39:03 30° 294° (WNW) 14:42:46 437.525
VELOX 1 07 May 14:41:41 14:44:10 15° 303° (WNW) 14:46:40 145.980
O/OREOS (USA 219) 07 May 14:42:15 14:46:51 77° 114° (ESE) 14:51:26 437.305
BEESAT 07 May 14:44:01 14:47:58 25° 93° (E) 14:51:54 436.000
GONETS M04 07 May 14:45:20 14:45:55 10° 295° (WNW) 14:46:31
TISAT 1 07 May 14:48:53 14:53:06 63° 288° (WNW) 14:57:15 437.305
AO-7 07 May 14:50:58 14:58:50 51° 59° (ENE) 15:06:46 29.400- 29.500
ITAMSAT 1 07 May 14:51:38 14:56:48 79° 73° (ENE) 15:02:01 435.822/435.867
Cosmos 2499 07 May 14:56:35 14:59:48 13° 288° (WNW) 15:03:06 435.465 / 435.565
SO-50 07 May 14:59:47 15:04:32 68° 235° (SW) 15:09:06 436.795
Oscar 19 07 May 15:02:37 15:06:20 20° 270° (W) 15:10:06 437.125/150
AO-85 07 May 15:17:40 15:21:23 18° 340° (NNW) 15:24:57 145.980
PCSat 07 May 15:19:13 15:24:33 62° 120° (ESE) 15:29:55 145.827
DANDE 07 May 15:38:57 15:42:17 52° 95° (E) 15:46:41 436.750
Gurwin Techsat 1B 07 May 15:39:59 15:44:02 22° 269° (W) 15:48:07 435.225
ITUPSAT 1 07 May 15:42:10 15:46:59 81° 105° (ESE) 15:51:46 437.325
SWISSCUBE 07 May 15:48:40 15:53:27 80° 288° (WNW) 15:58:14 437.505
CUSAT 1 07 May 15:48:43 15:52:51 53° 289° (WNW) 15:58:23 437.405
HORYU 2 07 May 15:51:39 15:55:14 24° 62° (ENE) 15:58:51 437.375
Cosmos 2491 07 May 15:56:12 16:02:53 23° 55° (NE) 16:09:31 435.465 / 435.565
MOZHAYETS 4 07 May 16:04:45 16:07:36 16° 89° (E) 16:10:26
BEESAT 07 May 16:21:25 16:25:58 46° 292° (WNW) 16:30:30 436.000
NOAA 18 07 May 16:21:39 16:24:23 14° 50° (NE) 16:27:07 137.9125
O/OREOS (USA 219) 07 May 16:23:33 16:26:49 19° 315° (NW) 16:30:06 437.305
ITAMSAT 1 07 May 16:33:40 16:36:54 17° 271° (W) 16:40:09 435.822/435.867
BRITE-PL 07 May 16:41:47 16:44:13 13° 51° (NE) 16:46:43 437.365/2234.400
SO-50 07 May 16:43:22 16:44:05 10° 254° (WSW) 16:44:48 436.795
